[[{"header":{"parameterUnit":"m.s-1","parameterCategory":1,"la1":30.2991,"la2":30.254,"lo1":-89.0895,"lo2":-89.0444,"dy":0.0017,"dx":0.0017,"nx":28,"ny":28,"refTime":"2023-08-07T21:00:00:Z","depth":0,"parameterNumber":2,"parameterNumberName":"U-component_of_WINDS"},"data":[0,0,0,0,0,0,0,0,0,0,0,0,0,0,0,0,0,0,0,0,0,0,0,0,0,0,0,0,0,0,0,0,0,0,0,0,0,0,0,0,0,0,0,0,0,0,0,0,0,0,0,0,0,0,0,0,0,0,2.0286,2.0286,0,2.0359,2.0359,2.036,2.032,2.0318,2.0316,2.0314,2.0393,2.0397,2.0401,0,0,0,0,0,0,0,0,0,0,0,0,0,2.0115,2.0118,2.0285,2.0286,2.0287,2.0358,2.036,2.0361,2.0321,2.0318,2.0316,2.0314,2.0392,2.0397,2.0402,0,0,0,0,0,0,0,0,0,0,0,0,0,2.0189,2.0119,2.0285,2.0276,2.0276,2.0358,2.036,2.0361,2.0321,2.0318,2.0315,2.0312,2.0391,2.0396,2.0402,2.0499,0,0,2.042,2.0423,0,0,0,0,0,0,0,0,2.0184,2.0195,2.0276,2.0277,2.0277,2.0327,2.0328,2.0407,2.0322,2.0304,2.0314,2.0311,2.0374,2.0381,2.0402,2.0503,2.0506,2.0421,2.0425,2.0427,2.0429,0,0,0,0,0,0,0,2.0179,2.0192,2.0314,2.0278,2.0278,2.0269,2.0276,2.0343,2.0355,2.0305,2.0303,2.0312,2.0374,2.0396,2.0403,2.0508,2.0421,2.0426,2.043,2.0432,2.0692,2.0695,0,0,0,0,0,0,2.0174,2.0188,2.0312,2.0317,2.0222,2.0275,2.0283,2.0314,2.0354,2.0358,2.0314,2.031,2.0387,2.0396,2.0406,2.0522,2.0427,2.0433,2.0436,2.0689,2.0693,2.0696,0,0,0,0,0,0,2.0171,2.0186,2.0309,2.0251,2.0266,2.0281,2.0316,2.0317,2.0339,2.0361,2.0363,2.0335,2.0385,2.0397,2.0476,2.0524,2.0435,2.0441,2.0685,2.069,2.0695,2.0755,0,0,0,0,0,0,2.0166,2.0185,2.0221,2.0252,2.027,2.0377,2.0319,2.0321,2.0349,2.0344,2.0381,2.0384,2.0384,2.0467,2.0482,2.0531,2.0445,2.0681,2.0687,2.0693,2.0749,2.0761,2.0772,0,0,0,0,0,2.016,2.0236,2.0223,2.0238,2.0315,2.038,2.039,2.0387,2.0353,2.039,2.0404,2.0383,2.0516,2.0476,2.0492,2.0543,2.0678,2.0685,2.0692,2.0744,2.0759,2.0772,0,0,0,0,0,0,2.0212,2.024,2.0226,2.0314,2.0345,2.0373,2.042,2.0404,2.0446,2.0439,2.0435,2.0444,2.0525,2.0542,2.0496,2.0639,2.0592,2.0603,2.0625,2.064,2.0651,2.0646,2.045,0,0,0,0,0,2.0233,2.0282,2.0305,2.0381,2.0397,2.0406,2.0434,2.0429,2.0461,2.0474,2.0494,2.0527,2.0576,2.0609,2.0656,2.0751,2.0758,2.0794,2.0806,2.0815,2.0825,2.0876,2.0892,2.0721,2.0721,2.0721,0,0,2.0278,2.03,2.0331,2.0392,2.0415,2.0467,2.0417,2.0474,2.0513,2.0484,2.0558,2.0574,2.0611,2.0698,2.0737,2.0714,2.0874,2.0825,2.0832,2.0837,2.0886,2.0902,2.0916,2.0726,2.0725,2.0724,0,0,2.0387,2.0408,2.0473,2.0497,2.0532,2.0538,2.0553,2.0584,2.0593,2.0668,2.0646,2.0693,2.0778,2.0805,2.083,2.0948,2.093,2.0964,2.1025,2.1075,2.1089,2.11,2.1143,2.1158,2.0973,2.0973,2.0973,0,2.0439,2.0515,2.0509,2.0568,2.0595,2.0569,2.0635,2.0659,2.0709,2.0729,2.0702,2.0807,2.0831,2.0923,2.0952,2.0973,2.0991,2.0959,2.1087,2.1099,2.111,2.115,2.1166,2.0977,2.0977,2.0976,2.0976,0,2.0577,2.0631,2.0679,2.0726,2.0759,2.0821,2.0825,2.086,2.0852,2.086,2.0937,2.0963,2.1014,2.1036,2.103,2.1128,2.1113,2.1087,2.1039,2.113,2.1168,2.1183,2.0983,2.0981,2.098,2.0979,0,0,2.0721,2.0763,2.0781,2.0801,2.0838,2.088,2.0941,2.099,2.1019,2.1054,2.1106,2.1178,2.1154,2.1182,2.1178,2.1222,2.1314,2.1191,2.1191,2.1212,2.1424,2.1443,2.1461,2.1302,2.1305,2.1307,2.1421,0,2.0832,2.0938,2.0934,2.1033,2.1083,2.1059,2.1112,2.1141,2.1151,2.1195,2.1206,2.1257,2.1221,2.1238,2.128,2.1294,2.1356,2.1285,2.1351,2.1353,2.1342,2.1481,2.1502,2.1608,2.1435,2.1438,2.144,0,2.0976,2.1014,2.1118,2.1146,2.1167,2.1215,2.1259,2.1301,2.1334,2.1338,2.1369,2.1358,2.1421,2.1371,2.1458,2.141,2.1437,2.1447,2.1451,2.1458,2.1402,2.1491,2.1641,2.1657,2.1463,2.1461,2.1459,0,2.107,2.1147,2.1219,2.1238,2.1273,2.1308,2.1324,2.1353,2.1383,2.1422,2.1441,2.1487,2.1513,2.1549,2.1551,2.1515,2.1639,2.159,2.1645,2.1645,2.1672,2.167,2.1829,2.1689,2.1689,2.1689,2.1688,0,2.1194,2.1259,2.1262,2.1306,2.1378,2.1373,2.1445,2.1458,2.1484,2.1531,2.1514,2.1558,2.1558,2.1604,2.1606,2.1678,2.169,2.1695,2.1695,2.1697,2.1696,2.1714,2.1707,2.1693,2.1692,2.1691,2.169,0,2.1311,2.1316,2.1393,2.142,2.1428,2.148,2.1503,2.1546,2.1553,2.1613,2.1627,2.164,2.1693,2.1698,2.176,2.1762,2.1848,2.184,2.1837,2.1835,2.189,2.1885,2.2066,2.2089,2.1934,2.1936,2.1937,0,2.139,2.1439,2.1471,2.1501,2.1519,2.1567,2.1597,2.1594,2.1626,2.1666,2.1704,2.1755,2.1795,2.1881,2.1896,2.1944,2.1937,2.1997,2.1944,2.1944,2.1938,2.1935,2.1939,2.2007,2.2009,2.201,2.2012,0,2.153,2.153,2.1572,2.1616,2.1651,2.1686,2.1718,2.1744,2.1745,2.1782,2.1835,2.1867,2.1929,2.198,2.2027,2.2044,2.2029,2.2028,2.2043,2.2046,2.2042,2.2044,2.1865,2.2024,2.2023,2.2022,2.2021,2.2021,2.163,2.1673,2.1701,2.175,2.1773,2.1804,2.1845,2.1857,2.1901,2.1951,2.1947,2.2006,2.2037,2.2097,2.2119,2.2165,2.2145,2.2167,2.2173,2.2178,2.2184,2.2034,2.2174,2.2173,2.2173,2.2173,2.2173,0,2.1769,2.1786,2.1831,2.1876,2.1914,2.1894,2.1929,2.1962,2.2014,2.2044,2.2084,2.2145,2.2194,2.2213,2.2261,2.2294,2.2288,2.2307,2.2305,2.2309,2.2199,2.2181,2.2311,2.2311,2.2311,2.2311,2.2311,2.2311,2.1846,2.1916,2.1919,2.2001,2.2018,2.2075,2.2096,2.2124,2.2148,2.2217,2.2257,2.2268,2.2294,2.2343,2.2388,2.2392,2.241,2.2432,2.2434,2.2331,2.2317,2.2303,2.2286,2.2436,2.2437,2.254,2.2541,2.2541]},{"header":{"parameterUnit":"m.s-1","parameterCategory":1,"la1":30.2991,"la2":30.254,"lo1":-89.0895,"lo2":-89.0444,"dy":0.0017,"dx":0.0017,"nx":28,"ny":28,"refTime":"2023-08-07T21:00:00:Z","depth":0,"parameterNumber":3,"parameterNumberName":"V-component_of_WINDS"},"data":[0,0,0,0,0,0,0,0,0,0,0,0,0,0,0,0,0,0,0,0,0,0,0,0,0,0,0,0,0,0,0,0,0,0,0,0,0,0,0,0,0,0,0,0,0,0,0,0,0,0,0,0,0,0,0,0,0,0,6.3184,6.3185,0,6.3327,6.3329,6.333,6.3341,6.3339,6.3338,6.3336,6.3472,6.3477,6.3482,0,0,0,0,0,0,0,0,0,0,0,0,0,6.2909,6.2914,6.3183,6.3185,6.3187,6.3327,6.3329,6.3331,6.3341,6.3339,6.3337,6.3336,6.3471,6.3477,6.3483,0,0,0,0,0,0,0,0,0,0,0,0,0,6.3038,6.2916,6.3183,6.3209,6.3213,6.3326,6.3329,6.3331,6.3341,6.3339,6.3337,6.3335,6.3469,6.3476,6.3484,6.3577,0,0,6.3507,6.351,0,0,0,0,0,0,0,0,6.303,6.3048,6.3204,6.3208,6.3212,6.3314,6.3282,6.3413,6.3342,6.3292,6.3336,6.3334,6.3421,6.3432,6.3464,6.3583,6.3589,6.3507,6.3512,6.3515,6.3517,0,0,0,0,0,0,0,6.3022,6.3042,6.324,6.3206,6.3211,6.3211,6.3227,6.3307,6.3367,6.3297,6.3298,6.3315,6.3423,6.3456,6.3467,6.3591,6.3507,6.3514,6.3519,6.3522,6.3796,6.3799,0,0,0,0,0,0,6.3009,6.3034,6.3235,6.3244,6.3114,6.3218,6.3235,6.3283,6.3367,6.3377,6.3317,6.3315,6.3445,6.3458,6.3472,6.3589,6.3515,6.3522,6.3527,6.3794,6.3797,6.38,0,0,0,0,0,0,6.3003,6.3027,6.323,6.314,6.3166,6.3225,6.3279,6.3287,6.3322,6.3382,6.3392,6.3341,6.3443,6.3461,6.3552,6.3593,6.3526,6.3533,6.379,6.3795,6.3798,6.3822,0,0,0,0,0,0,6.2995,6.3025,6.3063,6.3141,6.317,6.331,6.3281,6.3292,6.3336,6.3335,6.3408,6.3417,6.3443,6.3541,6.356,6.3603,6.3539,6.3787,6.3792,6.3797,6.3817,6.3826,6.3833,0,0,0,0,0,6.2985,6.3061,6.3065,6.3089,6.322,6.3313,6.3329,6.336,6.3339,6.3377,6.3416,6.3415,6.3586,6.355,6.3571,6.3617,6.3784,6.3791,6.3797,6.3814,6.3824,6.3833,0,0,0,0,0,0,6.2982,6.3071,6.3077,6.318,6.324,6.3314,6.3363,6.337,6.3433,6.3429,6.3461,6.3477,6.3568,6.3601,6.356,6.3713,6.3682,6.3693,6.3688,6.3698,6.3706,6.3696,6.3545,0,0,0,0,0,6.2994,6.3065,6.3138,6.3222,6.3252,6.3302,6.3344,6.3363,6.3424,6.3448,6.3493,6.3549,6.3616,6.3659,6.3723,6.3822,6.3838,6.3864,6.3872,6.3878,6.3887,6.3943,6.3956,6.382,6.382,6.382,0,0,6.3018,6.3076,6.3118,6.3223,6.3271,6.3342,6.3323,6.3397,6.345,6.3457,6.3548,6.3583,6.3648,6.3744,6.3788,6.3775,6.3928,6.3886,6.3891,6.3896,6.3951,6.3964,6.3975,6.3824,6.3823,6.3823,0,0,6.3098,6.3149,6.3227,6.3276,6.3351,6.3384,6.3403,6.3478,6.3503,6.3595,6.3603,6.3663,6.3777,6.3823,6.3862,6.3963,6.3964,6.3982,6.4024,6.4078,6.4089,6.4098,6.4135,6.4148,6.3991,6.3991,6.3991,0,6.3118,6.3228,6.3264,6.3341,6.3386,6.3401,6.3478,6.3523,6.3613,6.3643,6.3627,6.3772,6.3816,6.3924,6.395,6.398,6.4001,6.3974,6.4085,6.4095,6.4104,6.414,6.4153,6.3992,6.3992,6.3992,6.3992,0,6.3249,6.3325,6.3377,6.347,6.3521,6.3597,6.3642,6.3689,6.3704,6.3739,6.3832,6.3886,6.3963,6.3989,6.4002,6.41,6.4089,6.4079,6.4049,6.4119,6.4153,6.4166,6.3995,6.3994,6.3994,6.3993,0,0,6.333,6.3444,6.3462,6.3505,6.359,6.3648,6.3723,6.3803,6.3843,6.3904,6.3969,6.4066,6.4058,6.4101,6.412,6.4167,6.4245,6.4151,6.4153,6.4168,6.4356,6.4365,6.438,6.4247,6.425,6.4252,6.4351,0,6.3421,6.3562,6.3597,6.3716,6.3787,6.3803,6.3869,6.3926,6.3961,6.4023,6.4059,6.4129,6.4112,6.4139,6.4187,6.4226,6.4284,6.4219,6.4305,6.4308,6.429,6.4398,6.4406,6.4498,6.4365,6.4367,6.4369,0,6.3545,6.3615,6.3743,6.3821,6.3851,6.3911,6.3987,6.4048,6.4113,6.4134,6.4185,6.42,6.4277,6.4244,6.4351,6.4306,6.4343,6.4367,6.4372,6.4381,6.4343,6.4411,6.4527,6.4541,6.439,6.4388,6.4386,0,6.3593,6.3719,6.3812,6.3848,6.394,6.3982,6.4022,6.4085,6.4131,6.4196,6.4226,6.4298,6.4337,6.4391,6.4424,6.4397,6.4529,6.4498,6.4548,6.4547,6.4575,6.4573,6.47,6.4598,6.4597,6.4597,6.4597,0,6.3692,6.3769,6.3836,6.3893,6.398,6.4018,6.4102,6.4142,6.4198,6.4262,6.4278,6.4336,6.4376,6.4439,6.4465,6.455,6.4567,6.4585,6.4591,6.4585,6.4583,6.461,6.4604,6.4601,6.46,6.4599,6.4599,0,6.376,6.3808,6.3911,6.3992,6.4014,6.4074,6.4142,6.4197,6.4233,6.4313,6.4333,6.4388,6.4464,6.4503,6.4595,6.4612,6.4709,6.471,6.4688,6.4691,6.474,6.4735,6.4889,6.4912,6.4793,6.4794,6.4795,0,6.382,6.3881,6.397,6.4016,6.4059,6.4131,6.418,6.422,6.4269,6.4349,6.4394,6.4472,6.4536,6.4656,6.4702,6.4773,6.4776,6.4826,6.4787,6.4779,6.4779,6.4775,6.4782,6.4833,6.4834,6.4835,6.4835,0,6.3922,6.3944,6.4016,6.4096,6.4155,6.4219,6.4282,6.4317,6.4367,6.4421,6.4502,6.4552,6.4649,6.4725,6.4801,6.4838,6.4845,6.4848,6.4863,6.4857,6.4843,6.4853,6.4708,6.4844,6.4843,6.4842,6.4842,6.4841,6.3989,6.4045,6.4118,6.4197,6.425,6.4309,6.4366,6.4411,6.448,6.4566,6.4584,6.4668,6.4732,6.4835,6.4875,6.494,6.4929,6.4951,6.4957,6.4962,6.4965,6.4832,6.4953,6.4953,6.4953,6.4952,6.4952,0,6.4093,6.4142,6.4215,6.4306,6.4368,6.4373,6.4444,6.4495,6.4571,6.4632,6.4696,6.4788,6.4863,6.4916,6.4992,6.5034,6.5039,6.5052,6.505,6.5058,6.497,6.495,6.5047,6.5047,6.5047,6.5047,6.5047,6.5047,6.4155,6.4251,6.4281,6.4403,6.4449,6.4537,6.4577,6.4631,6.468,6.4784,6.4848,6.4884,6.4942,6.5022,6.509,6.5104,6.5131,6.5145,6.5158,6.5074,6.5064,6.5055,6.5036,6.515,6.515,6.5241,6.5242,6.5243]}]]